This demonstration page uses our WeatherBlox Daily Observations layout. Learn more.

Left ArrowRight Arrow

39.01783, -85.05884

Hourly Observations for October 24, 2019

Temp ( °F °C ) Dew Point ( °F °C ) Humidity (%) Winds ( mph kmh ) Pressure ( in mb ) Visibility ( mi km ) Precip ( " mm )
12:52 am 00:52 Partly Cloudy 54 12.2 32 0 43 43 SSW 8 13 30.13 1020 10 16 0.00 0.00
1:52 am 01:52 Mostly Clear 50 10 32 0 50 50 SW 6 9 30.16 1021 10 16 0.00 0.00
2:52 am 02:52 Mostly Clear 44 6.7 33 0.6 65 65 S 7 11 30.16 1022 10 16 0.00 0.00
3:52 am 03:52 Partly Cloudy 47 8.3 34 1.1 61 61 SSW 8 13 30.16 1021 9 14 0.00 0.00
4:52 am 04:52 Mostly Clear 46 7.8 34 1.1 63 63 S 10 17 30.16 1022 10 16 0.00 0.00
5:52 am 05:52 Mostly Clear 46 7.8 33 0.6 61 61 SSW 8 13 30.19 1022 10 16 0.00 0.00
6:52 am 06:52 Mostly Clear 46 7.8 34 1.1 63 63 SSW 8 13 30.19 1023 10 16 0.00 0.00
7:52 am 07:52 Mostly Clear 45 7.2 34 1.1 66 66 S 8 13 30.20 1023 10 16 0.00 0.00
8:52 am 08:52 Mostly Sunny 49 9.4 34 1.1 56 56 S 10 17 30.22 1023 10 16 0.00 0.00
9:52 am 09:52 Mostly Sunny 55 12.8 34 1.1 45 45 SSW 9 15 30.23 1024 10 16 0.00 0.00
10:52 am 10:52 Mostly Sunny 58 14.4 35 1.7 42 42 SW 9 15 30.24 1024 10 16 0.00 0.00
11:52 am 11:52 Partly Cloudy 63 17.2 37 2.8 38 38 WSW 8 13 30.24 1024 10 16 0.00 0.00
12:52 pm 12:52 Partly Cloudy 67 19.4 39 3.9 36 36 SSW 9 15 30.23 1024 10 16 0.00 0.00
1:52 pm 13:52 Mostly Cloudy 69 20.6 39 3.9 33 33 W 10 17 30.21 1023 10 16 0.00 0.00
2:52 pm 14:52 Mostly Cloudy 69 20.6 40 4.4 35 35 VRB 6 9 30.19 1022 10 16 0.00 0.00
3:52 pm 15:52 Mostly Cloudy 70 21.1 40 4.4 34 34 W 8 13 30.19 1022 10 16 0.00 0.00
4:52 pm 16:52 Mostly Cloudy 70 21.1 40 4.4 34 34 VRB 5 7 30.19 1022 10 16 0.00 0.00
5:52 pm 17:52 Mostly Cloudy 67 19.4 42 5.6 41 41 NNW 10 17 30.19 1023 10 16 0.00 0.00
7:52 pm 19:52 Partly Cloudy 58 14.4 43 6.1 58 58 N 8 13 30.24 1024 10 16 0.00 0.00
9:52 pm 21:52 Mostly Clear 54 12.2 43 6.1 67 67 Calm 30.26 1025 10 16 0.00 0.00
10:52 pm 22:52 Mostly Cloudy 53 11.7 43 6.1 69 69 NNW 7 11 30.26 1025 10 16 0.00 0.00
11:52 pm 23:52 Mostly Cloudy 54 12.2 44 6.7 69 69 NNW 7 11 30.27 1025 10 16 0.00 0.00

Powered by AerisWeather